SCP
0 0 0 0 0 0 0 0 0 0 0 0 0 0 0 0 0 0 0 0 0 0
0 0 0 0 0 0 0 0 0 0 0 0 0 0 0 0 0 0 0 0 0 0
0 0 0 0 0 0 0 0 0 0 0 0 0 0 0 0 0 0 0 0 0 0
0 0 0 0 0 0 0 0 0 0 0 0 0 0 0 0 0 0 0 0 0 0
0 0 0 0 0 0 0 0 0 0 0 0 0 0 0 0 0 0 0 0 0 0
0 0 0 0 0 0 0 0 0 0 0 0 0 0 0 0 0 0 0 0 0 0
0 0 0 0 0 0 0 0 0 0 0 0 0 0 0 0 0 0 0 0 0 0
0 0 0 0 0 0 0 0 0 0 0 0 0 0 0 0 0 0 0 0 0 0
0 0 0 0 0 0 0 0 0 0 0 0 0 0 0 0 0 0 0 0 0 0
0 0 0 0 0 0 0 0 0 0 0 0 0 0 0 0 0 0 0 0 0 0
0 0 0 0 0 0 0 0 0 0 0 0 0 0 0 0 0 0 0 0 0 0
-0 0 0 0 0 0 0 0 0 0 0 0 0 0 0 0 0 0 0 0 0 0
-0 -0 -0 0 0 0 0 0 0 0 0 0 0 0 0 0 0 0 0 0 0 0
-0 -0 -0 -0 -0 -0 0 0 -0 -0 -0 -0 -0 -0 -0 -0 0 -0 -0 0 0 0
Wind_Speed_500mb
33 32 33 36 40 43 47 49 49 49 51 50 50 55 58 59 68 74 72 79 85 89
37 37 37 34 35 38 42 44 47 50 54 55 53 55 54 54 54 61 71 75 80 84
33 33 36 37 36 38 41 43 45 49 52 53 55 51 50 53 54 55 68 72 73 79
40 40 39 41 41 40 41 43 45 46 50 53 54 52 52 49 54 49 67 69 73 80
40 40 42 44 42 41 40 40 42 44 46 47 52 52 51 47 48 48 54 67 77 70
45 47 47 48 47 44 42 43 39 39 41 42 45 52 53 47 41 45 56 60 64 72
50 51 55 55 53 53 51 45 43 43 45 41 40 43 45 43 40 36 46 49 61 69
47 51 55 57 59 57 55 55 54 53 54 51 49 51 46 40 33 37 43 54 57 60
47 50 49 54 59 63 65 65 64 66 70 71 65 53 50 36 35 26 23 42 49 67
45 46 51 54 56 61 65 67 70 72 75 80 82 69 56 47 43 40 32 16 23 27
45 46 46 48 51 56 60 65 68 70 75 79 83 81 74 63 58 53 54 43 31 19
47 44 44 48 51 54 55 61 67 68 71 76 78 80 80 75 75 71 70 62 53 45
45 47 47 51 53 52 55 58 61 66 70 68 72 75 76 78 76 74 75 75 72 63
41 45 47 49 49 49 54 57 61 63 65 69 70 70 69 70 71 71 70 72 73 72
Wind_Direction_500mb
353 347 340 337 333 328 322 317 319 319 320 312 306 299 295 284 265 251 248 251 253 252
356 350 346 342 340 336 329 320 316 317 314 314 310 302 293 287 280 263 243 251 255 253
358 357 352 346 340 337 331 328 319 313 310 306 305 307 295 287 285 278 240 248 252 255
8 2 358 354 351 345 337 331 330 323 316 316 312 307 299 291 284 277 247 245 251 255
18 13 11 7 2 357 350 348 341 333 322 316 314 312 305 292 280 271 262 255 257 253
26 23 21 16 14 9 5 4 355 346 339 332 322 316 306 293 285 264 261 267 255 249
35 35 33 29 24 23 20 14 13 12 7 355 342 332 325 312 281 267 254 261 258 258
42 43 45 41 39 36 34 31 29 27 28 20 10 360 340 343 321 285 273 265 255 252
44 44 43 50 48 46 42 41 38 37 37 32 25 13 8 5 2 341 304 277 274 263
41 42 41 41 43 45 45 44 43 43 43 41 37 27 23 28 29 23 19 330 296 258
40 39 40 41 41 44 44 44 43 42 43 42 43 38 35 35 39 42 42 37 22 348
42 40 40 42 42 41 40 42 43 40 38 39 39 39 37 36 37 37 39 43 43 33
45 43 42 44 43 42 40 40 40 40 38 37 36 36 34 31 31 33 36 38 36 41
44 45 43 42 42 40 41 41 39 39 38 36 31 30 30 30 27 26 28 33 35 32
Wind_Speed_850mb
33 32 33 36 40 43 47 49 49 49 51 50 50 55 58 59 68 74 72 79 85 89
37 37 37 34 35 38 42 44 47 50 54 55 53 55 54 54 54 61 71 75 80 84
33 33 36 37 36 38 41 43 45 49 52 53 55 51 50 53 54 55 68 72 73 79
40 40 39 41 41 40 41 43 45 46 50 53 54 52 52 49 54 49 67 69 73 80
40 40 42 44 42 41 40 40 42 44 46 47 52 52 51 47 48 48 54 67 77 70
45 47 47 48 47 44 42 43 39 39 41 42 45 52 53 47 41 45 56 60 64 72
50 51 55 55 53 53 51 45 43 43 45 41 40 43 45 43 40 36 46 49 61 69
47 51 55 57 59 57 55 55 54 53 54 51 49 51 46 40 33 37 43 54 57 60
47 50 49 54 59 63 65 65 64 66 70 71 65 53 50 36 35 26 23 42 49 67
45 46 51 54 56 61 65 67 70 72 75 80 82 69 56 47 43 40 32 16 23 27
45 46 46 48 51 56 60 65 68 70 75 79 83 81 74 63 58 53 54 43 31 19
47 44 44 48 51 54 55 61 67 68 71 76 78 80 80 75 75 71 70 62 53 45
45 47 47 51 53 52 55 58 61 66 70 68 72 75 76 78 76 74 75 75 72 63
41 45 47 49 49 49 54 57 61 63 65 69 70 70 69 70 71 71 70 72 73 72
Wind_Direction_850mb
353 347 340 337 333 328 322 317 319 319 320 312 306 299 295 284 265 251 248 251 253 252
356 350 346 342 340 336 329 320 316 317 314 314 310 302 293 287 280 263 243 251 255 253
358 357 352 346 340 337 331 328 319 313 310 306 305 307 295 287 285 278 240 248 252 255
8 2 358 354 351 345 337 331 330 323 316 316 312 307 299 291 284 277 247 245 251 255
18 13 11 7 2 357 350 348 341 333 322 316 314 312 305 292 280 271 262 255 257 253
26 23 21 16 14 9 5 4 355 346 339 332 322 316 306 293 285 264 261 267 255 249
35 35 33 29 24 23 20 14 13 12 7 355 342 332 325 312 281 267 254 261 258 258
42 43 45 41 39 36 34 31 29 27 28 20 10 360 340 343 321 285 273 265 255 252
44 44 43 50 48 46 42 41 38 37 37 32 25 13 8 5 2 341 304 277 274 263
41 42 41 41 43 45 45 44 43 43 43 41 37 27 23 28 29 23 19 330 296 258
40 39 40 41 41 44 44 44 43 42 43 42 43 38 35 35 39 42 42 37 22 348
42 40 40 42 42 41 40 42 43 40 38 39 39 39 37 36 37 37 39 43 43 33
45 43 42 44 43 42 40 40 40 40 38 37 36 36 34 31 31 33 36 38 36 41
44 45 43 42 42 40 41 41 39 39 38 36 31 30 30 30 27 26 28 33 35 32